This is the latest recevied weather packets stored in our database for station/object HF3P-11. If no packets are shown the sender has not sent any weather packets the latest 10 day(s).
| Time | Temp. | Humidity | Pressure | Rain* | Wind** | Luminosity | Snow |
|---|---|---|---|---|---|---|---|
| 1778087699 | 15.56° C | 78% | 998.7 hPa | 0 mm | - | - | - |
| 1778087399 | 15.56° C | 77% | 998.6 hPa | 0 mm | - | - | - |
| 1778087107 | 15.56° C | 77% | 998.5 hPa | 0 mm | - | - | - |
| 1778086799 | 15.56° C | 77% | 998.6 hPa | 0 mm | - | - | - |
| 1778086508 | 16.11° C | 76% | 998.6 hPa | 0 mm | - | - | - |
| 1778086199 | 16.11° C | 76% | 998.5 hPa | 0 mm | - | - | - |
| 1778085907 | 16.11° C | 75% | 998.4 hPa | 0 mm | - | - | - |
| 1778085599 | 16.67° C | 75% | 998.5 hPa | 0 mm | - | - | - |
| 1778085309 | 16.67° C | 75% | 998.4 hPa | 0 mm | - | - | - |
| 1778084999 | 16.67° C | 75% | 998.4 hPa | 0 mm | - | - | - |
| 1778084708 | 17.22° C | 74% | 998.4 hPa | 0 mm | - | - | - |
| 1778084399 | 17.22° C | 74% | 998.6 hPa | 0 mm | - | - | - |
| 1778084107 | 17.78° C | 74% | 998.5 hPa | 0 mm | - | - | - |
| 1778083799 | 19.44° C | 73% | 998.3 hPa | 0 mm | - | - | - |
| 1778083507 | 18.33° C | 74% | 998.3 hPa | 0 mm | - | - | - |
| 1778083209 | 18.33° C | 74% | 998.2 hPa | 0 mm | - | - | - |
| 1778082899 | 18.33° C | 74% | 998.2 hPa | 0 mm | - | - | - |
| 1778082600 | 18.33° C | 73% | 998.3 hPa | 0 mm | - | - | - |
| 1778082300 | 18.33° C | 74% | 998.2 hPa | 0 mm | - | - | - |
| 1778082000 | 18.33° C | 74% | 998 hPa | 0 mm | - | - | - |
| 1778081709 | 18.33° C | 75% | 998 hPa | 0 mm | - | - | - |
| 1778081399 | 18.33° C | 74% | 998.3 hPa | 0 mm | - | - | - |
| 1778081108 | 18.89° C | 74% | 998 hPa | 0 mm | - | - | - |
| 1778080810 | 18.89° C | 74% | 998 hPa | 0 mm | - | - | - |
| 1778080510 | 18.33° C | 73% | 997.9 hPa | 0 mm | - | - | - |
* Rain latest hour (hover to see other rain measurements)
** Current wind speed in m/s (hover to see current wind gust speed)